Home   Weather   Troisdorf   Past weeks
Flag for Germany

Past Weather in Troisdorf, North Rhine-Westphalia, Germany — Yesterday and Last 2 Weeks

Now
54 °F

Passing clouds.


Feels Like: 53 °F
Forecast: 59 / 46 °F
Wind: 5 mph from East

Location: Koeln / Bonn

Current Time: Oct 21, 2019 at 2:23:14 am

Latest Report: Oct 21, 2019 at 1:50 am


Visibility: N/A

Pressure: 29.83 "Hg

Humidity: 100%

Dew Point: 54 °F

Location of TroisdorfLocation

Past Weather in Troisdorf — Graph

°F

Troisdorf Temperature Yesterday

Maximum temperature yesterday: 57 °F (at 1:20 pm)
Minimum temperature yesterday: 52 °F (at 3:50 am)
Average temperature yesterday: 54 °F

High & Low Weather Summary for the Past Weeks

 TemperatureHumidityPressure
High75 °F (Oct 13, 2:20 pm)100% (Oct 6, 1:20 pm)30.09 "Hg (Oct 6, 1:20 pm)
Low46 °F (Oct 6, 1:20 am)53% (Oct 14, 5:20 pm)29.68 "Hg (Oct 15, 7:20 am)
Average56 °F83%29.85 "Hg
* Reported Oct 6 1:20 am — Oct 21 1:20 am, Troisdorf. Weather by CustomWeather, © 2019

Note: Actual official high and low records may vary slightly from our data, if they occured in-between our weather recording intervals... More about our weather records

Advertising

Troisdorf Weather History for the Previous 24 Hours

Scroll right to see more
 ConditionsComfort  
Time TempWeatherWind HumidityBarometerVisibility
1:20 am
Mon, Oct 21
54 °FPassing clouds.1 mph100%29.83 "HgN/A
12:50 am54 °FPassing clouds.1 mph100%29.83 "HgN/A
12:20 am54 °FLight rain. Partly cloudy.5 mph100%29.83 "Hg6 mi
11:50 pm
Sun, Oct 20
54 °FRain. Partly cloudy.5 mph100%29.83 "Hg6 mi
11:20 pm55 °FRain. Partly cloudy.6 mph94%29.83 "Hg6 mi
10:50 pm55 °FRain. Partly cloudy.2 mph94%29.80 "Hg6 mi
10:20 pm54 °FLight rain. Partly cloudy.2 mph100%29.80 "HgN/A
9:50 pm54 °FLight rain. Partly cloudy.6 mph100%29.80 "HgN/A
9:20 pm55 °FLight rain. Passing clouds.2 mph94%29.77 "HgN/A
8:50 pm54 °FLight rain. Passing clouds.2 mph100%29.77 "HgN/A
8:20 pm55 °FLight rain. Passing clouds.6 mph94%29.77 "HgN/A
7:50 pm55 °FRain. Passing clouds.6 mph100%29.77 "Hg3 mi
7:20 pm55 °FRain. Mostly cloudy.5 mph100%29.77 "Hg3 mi
6:50 pm55 °FRain. Mostly cloudy.2 mph100%29.74 "Hg3 mi
6:20 pm55 °FRain. Low clouds.3 mph100%29.74 "HgN/A
5:50 pm57 °FRain. More clouds than sun.3 mph94%29.74 "Hg5 mi
5:20 pm55 °FRain. Partly sunny.1 mph100%29.74 "Hg5 mi
4:50 pm57 °FRain. Partly sunny.3 mph94%29.74 "Hg5 mi
4:20 pm57 °FRain. Partly sunny.3 mph94%29.74 "HgN/A
3:50 pm57 °FLight rain. Mostly cloudy.5 mph94%29.74 "HgN/A
3:20 pm57 °FLight rain. More clouds than sun.2 mph94%29.71 "HgN/A
2:50 pm57 °FLight rain. More clouds than sun.3 mph94%29.74 "HgN/A
2:20 pm55 °FRain. More clouds than sun.2 mph100%29.74 "HgN/A
1:50 pm57 °FLight rain. Broken clouds.2 mph94%29.74 "HgN/A
1:20 pm57 °FLight rain. Broken clouds.2 mph94%29.74 "HgN/A
12:50 pm55 °FLight rain. Broken clouds.3 mph94%29.74 "HgN/A
12:20 pm55 °FScattered clouds.3 mph94%29.74 "HgN/A
11:50 am54 °FLight rain. Scattered clouds.3 mph100%29.77 "HgN/A
11:20 am54 °FRain. Partly sunny.3 mph100%29.77 "HgN/A
10:50 am54 °FLight rain. Overcast.2 mph94%29.77 "HgN/A
10:20 am54 °FLight rain. Low clouds.3 mph94%29.77 "HgN/A
9:50 am54 °FLow clouds.5 mph94%29.77 "HgN/A
9:20 am54 °FLow clouds.5 mph94%29.77 "HgN/A
8:50 am52 °FLow clouds.5 mph100%29.77 "HgN/A
8:20 am52 °FLow clouds.2 mph100%29.77 "HgN/A
7:50 am52 °FLow clouds.1 mph100%29.77 "HgN/A
7:20 am52 °FDrizzle. Overcast.3 mph100%29.77 "HgN/A
6:50 am52 °FDrizzle. Overcast.5 mph100%29.77 "HgN/A
6:20 am52 °FPassing clouds.2 mph100%29.77 "HgN/A
5:50 am52 °FLight rain. Passing clouds.2 mph100%29.77 "HgN/A
5:20 am52 °FLight rain. Clear.1 mph100%29.77 "HgN/A
4:50 am52 °FLight rain. Clear.3 mph100%29.74 "HgN/A
4:20 am52 °FLight rain. Clear.6 mph100%29.74 "HgN/A
3:50 am52 °FLight rain. Clear.7 mph100%29.74 "HgN/A
3:20 am54 °FLight rain. Clear.6 mph94%29.77 "HgN/A
2:50 am54 °FLight rain. Clear.5 mph94%29.77 "HgN/A
2:20 am54 °FLight rain. Clear.6 mph94%29.74 "HgN/A
Weather by CustomWeather, © 2019

See weather overview